Time,TemperatureF,DewpointF,PressureIn,WindDirection,WindDirectionDegrees,WindSpeedMPH,WindSpeedGustMPH,Humidity,HourlyPrecipIn,Conditions,Clouds,dailyrainin,SoftwareType,DateUTC
2013-05-15 00:03:00,67.0,54.0,-100.00,SSW,210,4.0,9.0,62,0.00,,,-99.99,,2013-05-15 04:03:00,
2013-05-15 00:12:00,67.0,54.0,-100.00,SW,230,5.0,9.0,63,0.00,,,-99.99,,2013-05-15 04:12:00,
2013-05-15 00:24:00,66.0,54.0,-100.00,SW,230,6.0,8.0,64,0.00,,,-99.99,,2013-05-15 04:24:00,
2013-05-15 00:33:00,66.0,54.0,-100.00,SW,220,5.0,9.0,66,0.00,,,-99.99,,2013-05-15 04:33:00,
2013-05-15 00:42:00,65.0,54.0,-100.00,SW,220,4.0,9.0,68,0.00,,,-99.99,,2013-05-15 04:42:00,
2013-05-15 00:52:00,65.0,55.0,-100.00,SW,220,6.0,8.0,69,0.00,,,-99.99,,2013-05-15 04:52:00,
2013-05-15 01:02:00,65.0,55.0,-100.00,SW,225,7.0,10.0,69,0.00,,,-99.99,,2013-05-15 05:02:00,
2013-05-15 01:12:00,67.0,55.0,-100.00,SW,230,7.0,12.0,67,0.00,,,-99.99,,2013-05-15 05:12:00,
2013-05-15 01:22:00,68.0,56.0,-100.00,SW,230,9.0,15.0,66,0.00,,,-99.99,,2013-05-15 05:22:00,
2013-05-15 01:32:00,68.0,56.0,-100.00,SW,230,9.0,15.0,66,0.00,,,-99.99,,2013-05-15 05:32:00,
2013-05-15 01:42:00,69.0,57.0,-100.00,SW,230,9.0,14.0,65,0.00,,,-99.99,,2013-05-15 05:42:00,
2013-05-15 01:52:00,70.0,57.0,-100.00,SW,235,9.0,14.0,64,0.00,,,-99.99,,2013-05-15 05:52:00,
2013-05-15 02:02:00,70.0,57.0,-100.00,SW,235,12.0,19.0,63,0.00,,,-99.99,,2013-05-15 06:02:00,
2013-05-15 02:11:00,71.0,57.0,-100.00,SW,225,10.0,16.0,63,0.00,,,-99.99,,2013-05-15 06:11:00,
2013-05-15 02:21:00,71.0,57.0,-100.00,SW,230,9.0,16.0,63,0.00,,,-99.99,,2013-05-15 06:21:00,
2013-05-15 02:32:00,70.0,58.0,-100.00,SW,235,7.0,12.0,63,0.00,,,-99.99,,2013-05-15 06:32:00,
2013-05-15 02:42:00,70.0,58.0,-100.00,SW,230,7.0,12.0,64,0.00,,,-99.99,,2013-05-15 06:42:00,
2013-05-15 02:52:00,70.0,58.0,-100.00,SW,225,6.0,13.0,64,0.00,,,-99.99,,2013-05-15 06:52:00,
2013-05-15 03:01:00,70.0,58.0,-100.00,SW,235,4.0,9.0,64,0.00,,,-99.99,,2013-05-15 07:01:00,
2013-05-15 03:11:00,70.0,58.0,-100.00,WSW,245,5.0,9.0,65,0.00,,,-99.99,,2013-05-15 07:11:00,
2013-05-15 03:22:00,70.0,58.0,-100.00,SW,225,9.0,14.0,65,0.00,,,-99.99,,2013-05-15 07:22:00,
2013-05-15 03:32:00,71.0,58.0,-100.00,SW,235,9.0,16.0,64,0.00,,,-99.99,,2013-05-15 07:32:00,
2013-05-15 03:41:00,70.0,58.0,-100.00,WSW,240,6.0,17.0,64,0.00,,,-99.99,,2013-05-15 07:41:00,
2013-05-15 03:52:00,70.0,58.0,-100.00,WSW,240,9.0,11.0,65,0.00,,,-99.99,,2013-05-15 07:52:00,
2013-05-15 04:02:00,70.0,58.0,-100.00,SW,225,9.0,12.0,66,0.00,,,-99.99,,2013-05-15 08:02:00,
2013-05-15 04:12:00,69.0,58.0,-100.00,SW,230,7.0,12.0,67,0.00,,,-99.99,,2013-05-15 08:12:00,
2013-05-15 04:21:00,69.0,58.0,-100.00,SW,235,7.0,11.0,68,0.00,,,-99.99,,2013-05-15 08:21:00,
2013-05-15 04:32:00,69.0,58.0,-100.00,SW,230,10.0,13.0,68,0.00,,,-99.99,,2013-05-15 08:32:00,
2013-05-15 04:42:00,69.0,58.0,-100.00,SW,220,10.0,14.0,68,0.00,,,-99.99,,2013-05-15 08:42:00,
2013-05-15 04:53:00,69.0,58.0,-100.00,SW,220,9.0,13.0,68,0.00,,,-99.99,,2013-05-15 08:53:00,
2013-05-15 05:01:00,69.0,58.0,-100.00,SW,235,7.0,14.0,67,0.00,,,-99.99,,2013-05-15 09:01:00,
2013-05-15 05:11:00,69.0,58.0,-100.00,SW,230,7.0,11.0,67,0.00,,,-99.99,,2013-05-15 09:11:00,
2013-05-15 05:21:00,69.0,58.0,-100.00,SW,230,9.0,12.0,67,0.00,,,-99.99,,2013-05-15 09:21:00,
2013-05-15 05:33:00,69.0,58.0,-100.00,SW,225,11.0,16.0,66,0.00,,,-99.99,,2013-05-15 09:33:00,
2013-05-15 05:42:00,69.0,58.0,-100.00,WSW,240,9.0,15.0,67,0.00,,,-99.99,,2013-05-15 09:42:00,
2013-05-15 05:53:00,70.0,58.0,-100.00,SW,230,9.0,16.0,66,0.00,,,-99.99,,2013-05-15 09:53:00,
2013-05-15 06:02:00,70.0,58.0,-100.00,SW,220,10.0,19.0,65,0.00,,,-99.99,,2013-05-15 10:02:00,
2013-05-15 06:13:00,70.0,58.0,-100.00,WSW,250,9.0,20.0,65,0.00,,,-99.99,,2013-05-15 10:13:00,
2013-05-15 06:22:00,70.0,58.0,-100.00,SW,230,10.0,17.0,65,0.00,,,-99.99,,2013-05-15 10:22:00,
2013-05-15 06:32:00,69.0,58.0,-100.00,WSW,245,10.0,16.0,67,0.00,,,-99.99,,2013-05-15 10:32:00,
2013-05-15 06:42:00,69.0,57.0,-100.00,SW,235,7.0,16.0,67,0.00,,,-99.99,,2013-05-15 10:42:00,
2013-05-15 06:52:00,68.0,57.0,-100.00,SW,230,11.0,16.0,68,0.00,,,-99.99,,2013-05-15 10:52:00,
2013-05-15 07:11:00,68.0,57.0,-100.00,SW,225,9.0,14.0,69,0.00,,,-99.99,,2013-05-15 11:11:00,
2013-05-15 07:18:00,68.0,57.0,-100.00,WSW,240,11.0,15.0,68,0.00,,,-99.99,,2013-05-15 11:18:00,
2013-05-15 07:27:00,68.0,57.0,-100.00,SW,230,11.0,16.0,69,0.00,,,-99.99,,2013-05-15 11:27:00,
2013-05-15 07:38:00,67.0,57.0,-100.00,WSW,240,12.0,19.0,69,0.00,,,-99.99,,2013-05-15 11:38:00,
2013-05-15 07:47:00,68.0,57.0,-100.00,SW,225,12.0,16.0,69,0.00,,,-99.99,,2013-05-15 11:47:00,
2013-05-15 07:56:00,67.0,57.0,-100.00,SW,235,12.0,15.0,70,0.00,,,-99.99,,2013-05-15 11:56:00,
2013-05-15 08:09:00,68.0,58.0,-100.00,SW,215,11.0,17.0,69,0.00,,,-99.99,,2013-05-15 12:09:00,
2013-05-15 08:15:00,69.0,58.0,-100.00,WSW,240,12.0,19.0,68,0.00,,,-99.99,,2013-05-15 12:15:00,
2013-05-15 08:29:00,69.0,58.0,-100.00,WSW,240,14.0,19.0,67,0.00,,,-99.99,,2013-05-15 12:29:00,
2013-05-15 08:36:00,70.0,58.0,-100.00,SW,235,13.0,20.0,66,0.00,,,-99.99,,2013-05-15 12:36:00,
2013-05-15 08:47:00,70.0,58.0,-100.00,SW,225,12.0,17.0,66,0.00,,,-99.99,,2013-05-15 12:47:00,
2013-05-15 08:54:00,70.0,58.0,-100.00,SW,230,13.0,17.0,65,0.00,,,-99.99,,2013-05-15 12:54:00,
2013-05-15 09:10:00,71.0,58.0,-100.00,SW,235,12.0,18.0,64,0.00,,,-99.99,,2013-05-15 13:10:00,
2013-05-15 09:18:00,71.0,59.0,-100.00,SW,235,12.0,21.0,64,0.00,,,-99.99,,2013-05-15 13:18:00,
2013-05-15 09:26:00,72.0,58.0,-100.00,SW,235,15.0,22.0,61,0.00,,,-99.99,,2013-05-15 13:26:00,
2013-05-15 09:36:00,73.0,58.0,-100.00,WSW,240,14.0,24.0,60,0.00,,,-99.99,,2013-05-15 13:36:00,
2013-05-15 09:46:00,73.0,58.0,-100.00,SW,235,12.0,26.0,59,0.00,,,-99.99,,2013-05-15 13:46:00,
2013-05-15 09:56:00,74.0,58.0,-100.00,WSW,245,14.0,28.0,58,0.00,,,-99.99,,2013-05-15 13:56:00,
2013-05-15 10:14:00,75.0,59.0,-100.00,WSW,240,16.0,27.0,57,0.00,,,-99.99,,2013-05-15 14:14:00,
2013-05-15 10:38:00,76.0,60.0,-100.00,SW,235,14.0,26.0,56,0.00,,,-99.99,,2013-05-15 14:38:00,
2013-05-15 10:46:00,77.0,59.0,-100.00,West,265,17.0,25.0,53,0.00,,,-99.99,,2013-05-15 14:46:00,
2013-05-15 10:53:00,78.0,59.0,-100.00,SW,235,15.0,32.0,53,0.00,,,-99.99,,2013-05-15 14:53:00,
2013-05-15 11:08:00,78.0,59.0,-100.00,WSW,240,18.0,29.0,51,0.00,,,-99.99,,2013-05-15 15:08:00,
2013-05-15 11:16:00,79.0,59.0,-100.00,WSW,250,15.0,33.0,50,0.00,,,-99.99,,2013-05-15 15:16:00,
2013-05-15 11:47:00,80.0,58.0,-100.00,WSW,245,18.0,28.0,48,0.00,,,-99.99,,2013-05-15 15:47:00,
2013-05-15 11:57:00,81.0,58.0,-100.00,WSW,245,20.0,26.0,46,0.00,,,-99.99,,2013-05-15 15:57:00,
2013-05-15 12:10:00,81.0,59.0,-100.00,West,275,13.0,35.0,47,0.00,,,-99.99,,2013-05-15 16:10:00,
2013-05-15 12:22:00,81.0,58.0,-100.00,WSW,245,17.0,31.0,46,0.00,,,-99.99,,2013-05-15 16:22:00,
2013-05-15 12:28:00,81.0,58.0,-100.00,WSW,240,22.0,34.0,46,0.00,,,-99.99,,2013-05-15 16:28:00,
2013-05-15 12:47:00,82.0,58.0,-100.00,WSW,240,23.0,32.0,44,0.00,,,-99.99,,2013-05-15 16:47:00,
2013-05-15 12:53:00,82.0,58.0,-100.00,West,275,21.0,32.0,43,0.00,,,-99.99,,2013-05-15 16:53:00,
2013-05-15 13:19:00,83.0,58.0,-100.00,WSW,255,19.0,29.0,42,0.00,,,-99.99,,2013-05-15 17:19:00,
2013-05-15 13:27:00,83.0,58.0,-100.00,WSW,250,19.0,27.0,42,0.00,,,-99.99,,2013-05-15 17:27:00,
2013-05-15 13:38:00,84.0,59.0,-100.00,WSW,245,18.0,30.0,43,0.00,,,-99.99,,2013-05-15 17:38:00,
2013-05-15 13:45:00,84.0,59.0,-100.00,SW,225,17.0,32.0,42,0.00,,,-99.99,,2013-05-15 17:45:00,
2013-05-15 13:56:00,84.0,58.0,-100.00,WSW,240,15.0,33.0,42,0.00,,,-99.99,,2013-05-15 17:56:00,
2013-05-15 14:07:00,84.0,59.0,-100.00,West,260,21.0,33.0,42,0.00,,,-99.99,,2013-05-15 18:07:00,
2013-05-15 14:16:00,84.0,59.0,-100.00,SW,225,22.0,35.0,43,0.00,,,-99.99,,2013-05-15 18:16:00,
2013-05-15 14:37:00,85.0,59.0,-100.00,WSW,240,23.0,33.0,41,0.00,,,-99.99,,2013-05-15 18:37:00,
2013-05-15 14:46:00,85.0,59.0,-100.00,SW,235,18.0,35.0,42,0.00,,,-99.99,,2013-05-15 18:46:00,
2013-05-15 15:09:00,85.0,60.0,-100.00,WSW,245,19.0,35.0,42,0.00,,,-99.99,,2013-05-15 19:09:00,
2013-05-15 15:15:00,86.0,59.0,-100.00,SW,235,22.0,35.0,40,0.00,,,-99.99,,2013-05-15 19:15:00,
2013-05-15 15:30:00,85.0,59.0,-100.00,WSW,245,21.0,35.0,41,0.00,,,-99.99,,2013-05-15 19:30:00,
2013-05-15 15:38:00,86.0,60.0,-100.00,WSW,245,17.0,29.0,42,0.00,,,-99.99,,2013-05-15 19:38:00,
2013-05-15 15:45:00,86.0,60.0,-100.00,WSW,240,16.0,30.0,41,0.00,,,-99.99,,2013-05-15 19:45:00,
2013-05-15 15:54:00,86.0,60.0,-100.00,WSW,250,21.0,35.0,40,0.00,,,-99.99,,2013-05-15 19:54:00,
2013-05-15 16:08:00,85.0,59.0,-100.00,SW,225,19.0,32.0,42,0.00,,,-99.99,,2013-05-15 20:08:00,
2013-05-15 16:18:00,85.0,59.0,-100.00,SW,235,21.0,37.0,40,0.00,,,-99.99,,2013-05-15 20:18:00,
2013-05-15 16:28:00,85.0,59.0,-100.00,WSW,245,19.0,30.0,41,0.00,,,-99.99,,2013-05-15 20:28:00,
2013-05-15 16:46:00,86.0,59.0,-100.00,WSW,250,20.0,28.0,40,0.00,,,-99.99,,2013-05-15 20:46:00,
2013-05-15 16:53:00,86.0,59.0,-100.00,SW,230,20.0,28.0,39,0.00,,,-99.99,,2013-05-15 20:53:00,
2013-05-15 17:09:00,87.0,60.0,-100.00,West,265,14.0,26.0,40,0.00,,,-99.99,,2013-05-15 21:09:00,
2013-05-15 17:20:00,87.0,59.0,-100.00,WSW,240,17.0,31.0,39,0.00,,,-99.99,,2013-05-15 21:20:00,
2013-05-15 17:28:00,87.0,59.0,-100.00,SW,235,17.0,30.0,39,0.00,,,-99.99,,2013-05-15 21:28:00,
2013-05-15 17:41:00,86.0,58.0,-100.00,West,275,19.0,29.0,37,0.00,,,-99.99,,2013-05-15 21:41:00,
2013-05-15 17:50:00,87.0,58.0,-100.00,West,265,16.0,37.0,38,0.00,,,-99.99,,2013-05-15 21:50:00,
2013-05-15 17:56:00,86.0,58.0,-100.00,WSW,245,16.0,35.0,39,0.00,,,-99.99,,2013-05-15 21:56:00,
2013-05-15 18:11:00,87.0,58.0,-100.00,WSW,240,19.0,29.0,38,0.00,,,-99.99,,2013-05-15 22:11:00,
2013-05-15 18:29:00,87.0,59.0,-100.00,SW,235,12.0,29.0,39,0.00,,,-99.99,,2013-05-15 22:29:00,
2013-05-15 18:40:00,86.0,58.0,-100.00,SW,235,17.0,25.0,38,0.00,,,-99.99,,2013-05-15 22:40:00,
2013-05-15 18:54:00,85.0,58.0,-100.00,SW,225,14.0,26.0,40,0.00,,,-99.99,,2013-05-15 22:54:00,
2013-05-15 19:08:00,84.0,58.0,-100.00,West,280,12.0,22.0,41,0.00,,,-99.99,,2013-05-15 23:08:00,
2013-05-15 19:15:00,84.0,58.0,-100.00,WSW,245,15.0,25.0,41,0.00,,,-99.99,,2013-05-15 23:15:00,
2013-05-15 19:28:00,84.0,58.0,-100.00,West,260,17.0,24.0,40,0.00,,,-99.99,,2013-05-15 23:28:00,
2013-05-15 20:17:00,82.0,58.0,-100.00,WSW,240,11.0,18.0,44,0.00,,,-99.99,,2013-05-16 00:17:00,
2013-05-15 20:26:00,82.0,58.0,-100.00,WSW,245,10.0,17.0,45,0.00,,,-99.99,,2013-05-16 00:26:00,
2013-05-15 20:54:00,80.0,59.0,-100.00,SW,225,9.0,12.0,49,0.00,,,-99.99,,2013-05-16 00:54:00,
2013-05-15 21:07:00,80.0,59.0,-100.00,WSW,240,7.0,14.0,49,0.00,,,-99.99,,2013-05-16 01:07:00,
2013-05-15 21:17:00,80.0,59.0,-100.00,SW,235,9.0,16.0,48,0.00,,,-99.99,,2013-05-16 01:17:00,
2013-05-15 21:37:00,78.0,59.0,-100.00,SW,225,7.0,11.0,51,0.00,,,-99.99,,2013-05-16 01:37:00,
2013-05-15 21:48:00,78.0,59.0,-100.00,WSW,240,7.0,11.0,52,0.00,,,-99.99,,2013-05-16 01:48:00,
2013-05-15 21:56:00,78.0,59.0,-100.00,SW,225,9.0,13.0,52,0.00,,,-99.99,,2013-05-16 01:56:00,
2013-05-15 22:08:00,78.0,59.0,-100.00,SW,235,9.0,16.0,52,0.00,,,-99.99,,2013-05-16 02:08:00,
2013-05-15 22:16:00,77.0,58.0,-100.00,WSW,240,9.0,14.0,52,0.00,,,-99.99,,2013-05-16 02:16:00,
2013-05-15 22:28:00,77.0,58.0,-100.00,SW,235,7.0,12.0,52,0.00,,,-99.99,,2013-05-16 02:28:00,
2013-05-15 22:38:00,76.0,57.0,-100.00,WSW,245,7.0,12.0,51,0.00,,,-99.99,,2013-05-16 02:38:00,
2013-05-15 22:46:00,76.0,57.0,-100.00,WSW,245,7.0,12.0,51,0.00,,,-99.99,,2013-05-16 02:46:00,
2013-05-15 22:54:00,76.0,57.0,-100.00,WSW,245,7.0,12.0,51,0.00,,,-99.99,,2013-05-16 02:54:00,
2013-05-15 23:07:00,77.0,56.0,-100.00,SW,230,12.0,16.0,48,0.00,,,-99.99,,2013-05-16 03:07:00,
2013-05-15 23:16:00,76.0,56.0,-100.00,SW,230,10.0,15.0,49,0.00,,,-99.99,,2013-05-16 03:16:00,
2013-05-15 23:25:00,76.0,56.0,-100.00,WSW,240,8.0,17.0,49,0.00,,,-99.99,,2013-05-16 03:25:00,
2013-05-15 23:38:00,76.0,55.0,-100.00,WSW,240,9.0,15.0,49,0.00,,,-99.99,,2013-05-16 03:38:00,
2013-05-15 23:45:00,76.0,55.0,-100.00,WSW,245,9.0,17.0,48,0.00,,,-99.99,,2013-05-16 03:45:00,
2013-05-15 23:55:00,76.0,55.0,-100.00,WSW,240,9.0,16.0,48,0.00,,,-99.99,,2013-05-16 03:55:00,